2024-174A (61238 NORAD) Tracking and Keplerian Element Data

This shows tracking and keplerian element data for the satellite.

Feedback or suggestion? Click here.




ElementValue
Catalog61238
Name2024-174A
Epoch Orbit272
Epoch Day286.90599901
Epoch Year2024
RAAN291.8944
Inclination97.4568
Eccentricity0.0014103
Argument of Perigee220.7949
Mean Anonmoly139.2229
Mean Motion15.16792533
Decay Rate0.00013365
L11 61238U 24174A 24286.90599901 .00013365 00000+0 68142-3 0 9993
L22 61238 97.4568 291.8944 0014103 220.7949 139.2229 15.16792533 2721



Live tracking and technical data element details for 2024-174A (NORAD 61238). 2024-174A can be tracked NOW for your location showing map with azimuth and elevation plus other details from your city location.







IsCatalogInMostPopularTable: catalog: 61238, numindb: 23
Update: records affected: 1



GetName: 61238 2024-174A

Hit Count: updated at: Wed, 04 Dec 2024 09:22:05 GMT